This demonstration page uses our WeatherBlox Daily Observations layout. Learn more.

Left ArrowRight Arrow

31.84235, -102.49876

Hourly Observations for March 23, 2018

Temp ( °F °C ) Dew Point ( °F °C ) Humidity (%) Winds ( mph kmh ) Pressure ( in mb ) Visibility ( mi km ) Precip ( " mm )
12:53 am 00:53 Clear 66 18.9 54 12.2 65 65 S 14 22 29.95 1014 10 16 0.00 0.00
1:53 am 01:53 Clear 64 17.8 54 12.2 70 70 S 16 26 29.94 1014 10 16 0.00 0.00
2:53 am 02:53 Clear 63 17.2 54 12.2 73 73 S 13 20 29.92 1013 10 16 0.00 0.00
3:53 am 03:53 Clear 62 16.7 54 12.2 75 75 S 12 19 29.90 1013 10 16 0.00 0.00
4:53 am 04:53 Clear 61 16.1 55 12.8 81 81 S 12 19 29.88 1012 10 16 0.00 0.00
5:53 am 05:53 Clear 60 15.6 55 12.8 84 84 S 12 19 29.88 1012 10 16 0.00 0.00
6:53 am 06:53 Clear 59 15 55 12.8 87 87 S 10 17 29.88 1012 10 16 0.00 0.00
7:53 am 07:53 Sunny 59 15 55 12.8 87 87 S 10 17 29.89 1012 10 16 0.00 0.00
8:53 am 08:53 Sunny 59 15 54 12.2 83 83 S 10 17 29.90 1013 10 16 0.00 0.00
9:53 am 09:53 Sunny 63 17.2 55 12.8 76 76 S 13 20 29.92 1013 10 16 0.00 0.00
10:53 am 10:53 Sunny 65 18.3 55 12.8 70 70 SSW 14 22 29.92 1013 10 16 0.00 0.00
11:53 am 11:53 Sunny 70 21.1 54 12.2 57 57 SSW 14 22 29.91 1013 10 16 0.00 0.00
12:53 pm 12:53 Sunny 75 23.9 54 12.2 48 48 S 17 28 29.88 1012 10 16 0.00 0.00
1:53 pm 13:53 Sunny 81 27.2 51 10.6 35 35 SSW 14 22 29.84 1011 10 16 0.00 0.00
2:53 pm 14:53 Sunny 83 28.3 48 8.9 30 30 SSW 12 19 29.81 1009 10 16 0.00 0.00
3:53 pm 15:53 Sunny 86 30 44 6.7 23 23 SSW 15 24 29.77 1008 10 16 0.00 0.00
4:53 pm 16:53 Sunny 88 31.1 39 3.9 18 18 SW 14 22 29.74 1007 10 16 0.00 0.00
5:53 pm 17:53 Sunny 88 31.1 39 3.9 18 18 S 14 22 29.71 1006 10 16 0.00 0.00
6:53 pm 18:53 Sunny 87 30.6 39 3.9 18 18 SSW 16 26 29.72 1006 10 16 0.00 0.00
7:14 pm 19:14 Mostly Sunny 86 30 42 5.6 21 21 SW 10 17 29.65 1004 10 16 0.00 0.00
7:53 pm 19:53 Sunny 83 28.3 45 7.2 26 26 SSW 13 20 29.76 1008 10 16 0.00 0.00
8:53 pm 20:53 Clear 78 25.6 52 11.1 40 40 SSW 13 20 29.79 1009 10 16 0.00 0.00
9:53 pm 21:53 Mostly Clear 73 22.8 55 12.8 53 53 SSW 17 28 29.80 1009 10 16 0.00 0.00
10:53 pm 22:53 Clear 72 22.2 57 13.9 59 59 SSW 15 24 29.81 1010 10 16 0.00 0.00
11:53 pm 23:53 Clear 69 20.6 57 13.9 66 66 SSW 14 22 29.82 1010 10 16 0.00 0.00

Powered by AerisWeather